Time,TemperatureF,DewpointF,PressureIn,WindDirection,WindDirectionDegrees,WindSpeedMPH,WindSpeedGustMPH,Humidity,HourlyPrecipIn,Conditions,Clouds,dailyrainin,SoftwareType,DateUTC
2015-04-19 00:04:00,46.4,27.8,30.14,East,82,1.0,1.0,48,0.00,,,0.00,WeatherCatV2.10B1306,2015-04-19 04:04:00,
2015-04-19 00:09:00,46.1,28.0,30.14,ENE,76,0.0,1.0,49,0.00,,,0.00,WeatherCatV2.10B1306,2015-04-19 04:09:00,
2015-04-19 00:14:00,46.0,28.4,30.14,ENE,77,0.0,0.0,50,0.00,,,0.00,WeatherCatV2.10B1306,2015-04-19 04:14:00,
2015-04-19 00:19:00,45.7,28.1,30.14,ENE,77,0.0,0.0,50,0.00,,,0.00,WeatherCatV2.10B1306,2015-04-19 04:19:00,
2015-04-19 00:24:00,45.5,28.4,30.14,East,85,1.0,1.0,51,0.00,,,0.00,WeatherCatV2.10B1306,2015-04-19 04:24:00,
2015-04-19 00:29:00,45.5,28.0,30.14,East,85,0.0,0.0,50,0.00,,,0.00,WeatherCatV2.10B1306,2015-04-19 04:29:00,
2015-04-19 00:39:00,45.6,28.5,30.15,East,86,0.0,1.0,51,0.00,,,0.00,WeatherCatV2.10B1306,2015-04-19 04:39:00,
2015-04-19 00:49:00,45.6,28.5,30.15,East,89,0.0,2.0,51,0.00,,,0.00,WeatherCatV2.10B1306,2015-04-19 04:49:00,
2015-04-19 00:54:00,45.5,28.9,30.15,ENE,75,0.0,1.0,52,0.00,,,0.00,WeatherCatV2.10B1306,2015-04-19 04:54:00,
2015-04-19 00:59:00,45.6,28.5,30.15,East,93,0.0,1.0,51,0.00,,,0.00,WeatherCatV2.10B1306,2015-04-19 04:59:00,
2015-04-19 01:04:00,45.5,28.9,30.15,East,91,0.0,1.0,52,0.00,,,0.00,WeatherCatV2.10B1306,2015-04-19 05:04:00,
2015-04-19 01:09:00,45.2,29.1,30.15,East,89,2.0,2.0,53,0.00,,,0.00,WeatherCatV2.10B1306,2015-04-19 05:09:00,
2015-04-19 01:14:00,45.2,29.1,30.15,ENE,78,0.0,2.0,53,0.00,,,0.00,WeatherCatV2.10B1306,2015-04-19 05:14:00,
2015-04-19 01:24:00,45.2,28.6,30.15,ENE,63,0.0,1.0,52,0.00,,,0.00,WeatherCatV2.10B1306,2015-04-19 05:24:00,
2015-04-19 01:29:00,45.0,28.9,30.15,NNE,19,0.0,3.0,53,0.00,,,0.00,WeatherCatV2.10B1306,2015-04-19 05:29:00,
2015-04-19 01:34:00,45.0,28.9,30.16,East,82,0.0,1.0,53,0.00,,,0.00,WeatherCatV2.10B1306,2015-04-19 05:34:00,
2015-04-19 01:39:00,44.9,28.8,30.16,East,91,0.0,1.0,53,0.00,,,0.00,WeatherCatV2.10B1306,2015-04-19 05:39:00,
2015-04-19 01:44:00,44.7,29.1,30.16,East,85,0.0,1.0,54,0.00,,,0.00,WeatherCatV2.10B1306,2015-04-19 05:44:00,
2015-04-19 01:49:00,44.6,29.0,30.16,East,87,0.0,1.0,54,0.00,,,0.00,WeatherCatV2.10B1306,2015-04-19 05:49:00,
2015-04-19 01:54:00,44.5,29.4,30.16,NE,56,0.0,2.0,55,0.00,,,0.00,WeatherCatV2.10B1306,2015-04-19 05:54:00,
2015-04-19 01:59:00,44.3,29.2,30.16,East,79,1.0,2.0,55,0.00,,,0.00,WeatherCatV2.10B1306,2015-04-19 05:59:00,
2015-04-19 02:04:00,44.3,29.2,30.16,ENE,66,0.0,2.0,55,0.00,,,0.00,WeatherCatV2.10B1306,2015-04-19 06:04:00,
2015-04-19 02:09:00,44.2,29.1,30.17,East,81,1.0,5.0,55,0.00,,,0.00,WeatherCatV2.10B1306,2015-04-19 06:09:00,
2015-04-19 02:14:00,44.3,29.2,30.17,East,91,1.0,4.0,55,0.00,,,0.00,WeatherCatV2.10B1306,2015-04-19 06:14:00,
2015-04-19 02:19:00,44.4,29.3,30.17,WNW,302,1.0,8.0,55,0.00,,,0.00,WeatherCatV2.10B1306,2015-04-19 06:19:00,
2015-04-19 02:24:00,44.4,29.7,30.17,ENE,72,1.0,7.0,56,0.00,,,0.00,WeatherCatV2.10B1306,2015-04-19 06:24:00,
2015-04-19 02:29:00,44.2,29.9,30.16,NE,46,2.0,3.0,57,0.00,,,0.00,WeatherCatV2.10B1306,2015-04-19 06:29:00,
2015-04-19 02:34:00,44.1,29.9,30.16,ENE,68,4.0,6.0,57,0.00,,,0.00,WeatherCatV2.10B1306,2015-04-19 06:34:00,
2015-04-19 02:39:00,43.9,29.7,30.17,East,89,4.0,4.0,57,0.00,,,0.00,WeatherCatV2.10B1306,2015-04-19 06:39:00,
2015-04-19 02:44:00,43.9,29.7,30.17,ENE,78,3.0,6.0,57,0.00,,,0.00,WeatherCatV2.10B1306,2015-04-19 06:44:00,
2015-04-19 02:49:00,43.7,29.9,30.17,NE,44,2.0,3.0,58,0.00,,,0.00,WeatherCatV2.10B1306,2015-04-19 06:49:00,
2015-04-19 02:59:00,43.2,30.3,30.17,East,86,0.0,3.0,60,0.00,,,0.00,WeatherCatV2.10B1306,2015-04-19 06:59:00,
2015-04-19 03:04:00,43.0,30.1,30.17,East,82,2.0,6.0,60,0.00,,,0.00,WeatherCatV2.10B1306,2015-04-19 07:04:00,
2015-04-19 03:09:00,42.8,30.3,30.17,ENE,65,0.0,7.0,61,0.00,,,0.00,WeatherCatV2.10B1306,2015-04-19 07:09:00,
2015-04-19 03:14:00,42.6,30.1,30.17,NE,39,2.0,6.0,61,0.00,,,0.00,WeatherCatV2.10B1306,2015-04-19 07:14:00,
2015-04-19 03:19:00,42.4,30.3,30.17,NE,48,2.0,5.0,62,0.00,,,0.00,WeatherCatV2.10B1306,2015-04-19 07:19:00,
2015-04-19 03:24:00,42.3,30.2,30.17,ENE,58,2.0,6.0,62,0.00,,,0.00,WeatherCatV2.10B1306,2015-04-19 07:24:00,
2015-04-19 03:29:00,42.0,30.3,30.17,NNE,29,1.0,3.0,63,0.00,,,0.00,WeatherCatV2.10B1306,2015-04-19 07:29:00,
2015-04-19 03:34:00,41.7,30.0,30.17,East,84,2.0,3.0,63,0.00,,,0.00,WeatherCatV2.10B1306,2015-04-19 07:34:00,
2015-04-19 03:39:00,41.5,29.9,30.18,NE,41,3.0,5.0,63,0.00,,,0.00,WeatherCatV2.10B1306,2015-04-19 07:39:00,
2015-04-19 03:44:00,41.3,30.0,30.17,North,8,3.0,3.0,64,0.00,,,0.00,WeatherCatV2.10B1306,2015-04-19 07:44:00,
2015-04-19 03:49:00,41.1,30.2,30.17,East,86,1.0,3.0,65,0.00,,,0.00,WeatherCatV2.10B1306,2015-04-19 07:49:00,
2015-04-19 03:54:00,40.9,30.4,30.17,ENE,75,0.0,5.0,66,0.00,,,0.00,WeatherCatV2.10B1306,2015-04-19 07:54:00,
2015-04-19 03:59:00,40.8,30.3,30.17,East,79,0.0,3.0,66,0.00,,,0.00,WeatherCatV2.10B1306,2015-04-19 07:59:00,
2015-04-19 04:04:00,40.5,30.4,30.17,East,94,1.0,3.0,67,0.00,,,0.00,WeatherCatV2.10B1306,2015-04-19 08:04:00,
2015-04-19 04:09:00,40.4,30.3,30.17,ENE,58,2.0,3.0,67,0.00,,,0.00,WeatherCatV2.10B1306,2015-04-19 08:09:00,
2015-04-19 04:14:00,40.2,30.1,30.18,East,91,0.0,1.0,67,0.00,,,0.00,WeatherCatV2.10B1306,2015-04-19 08:14:00,
2015-04-19 04:19:00,40.0,30.3,30.18,NE,55,1.0,2.0,68,0.00,,,0.00,WeatherCatV2.10B1306,2015-04-19 08:19:00,
2015-04-19 04:24:00,39.8,30.1,30.18,NNE,32,0.0,1.0,68,0.00,,,0.00,WeatherCatV2.10B1306,2015-04-19 08:24:00,
2015-04-19 04:29:00,39.7,30.0,30.18,East,87,0.0,2.0,68,0.00,,,0.00,WeatherCatV2.10B1306,2015-04-19 08:29:00,
2015-04-19 04:34:00,39.6,29.9,30.18,East,97,1.0,1.0,68,0.00,,,0.00,WeatherCatV2.10B1306,2015-04-19 08:34:00,
2015-04-19 04:39:00,39.4,30.1,30.18,ENE,63,0.0,5.0,69,0.00,,,0.00,WeatherCatV2.10B1306,2015-04-19 08:39:00,
2015-04-19 04:44:00,39.4,30.1,30.18,ESE,110,0.0,1.0,69,0.00,,,0.00,WeatherCatV2.10B1306,2015-04-19 08:44:00,
2015-04-19 04:49:00,39.1,30.2,30.18,ENE,61,0.0,2.0,70,0.00,,,0.00,WeatherCatV2.10B1306,2015-04-19 08:49:00,
2015-04-19 04:54:00,38.9,30.0,30.19,ENE,71,0.0,1.0,70,0.00,,,0.00,WeatherCatV2.10B1306,2015-04-19 08:54:00,
2015-04-19 04:59:00,38.8,29.9,30.19,East,85,0.0,0.0,70,0.00,,,0.00,WeatherCatV2.10B1306,2015-04-19 08:59:00,
2015-04-19 05:04:00,38.5,29.9,30.19,NNE,15,0.0,2.0,71,0.00,,,0.00,WeatherCatV2.10B1306,2015-04-19 09:04:00,
2015-04-19 05:09:00,38.3,29.7,30.19,East,86,0.0,0.0,71,0.00,,,0.00,WeatherCatV2.10B1306,2015-04-19 09:09:00,
2015-04-19 05:14:00,38.1,29.9,30.19,ENE,75,0.0,0.0,72,0.00,,,0.00,WeatherCatV2.10B1306,2015-04-19 09:14:00,
2015-04-19 05:19:00,37.9,29.7,30.19,NE,49,1.0,1.0,72,0.00,,,0.00,WeatherCatV2.10B1306,2015-04-19 09:19:00,
2015-04-19 05:24:00,37.9,30.0,30.19,East,81,0.0,1.0,73,0.00,,,0.00,WeatherCatV2.10B1306,2015-04-19 09:24:00,
2015-04-19 05:29:00,37.9,30.0,30.19,ENE,65,0.0,1.0,73,0.00,,,0.00,WeatherCatV2.10B1306,2015-04-19 09:29:00,
2015-04-19 05:34:00,37.7,29.8,30.19,East,82,0.0,1.0,73,0.00,,,0.00,WeatherCatV2.10B1306,2015-04-19 09:34:00,
2015-04-19 05:39:00,37.5,30.0,30.19,East,88,0.0,1.0,74,0.00,,,0.00,WeatherCatV2.10B1306,2015-04-19 09:39:00,
2015-04-19 05:44:00,37.3,29.8,30.19,East,88,0.0,1.0,74,0.00,,,0.00,WeatherCatV2.10B1306,2015-04-19 09:44:00,
2015-04-19 05:49:00,37.1,29.9,30.19,East,86,0.0,1.0,75,0.00,,,0.00,WeatherCatV2.10B1306,2015-04-19 09:49:00,
2015-04-19 05:54:00,36.9,29.7,30.19,East,79,0.0,0.0,75,0.00,,,0.00,WeatherCatV2.10B1306,2015-04-19 09:54:00,
2015-04-19 05:59:00,36.9,30.0,30.19,ENE,68,0.0,1.0,76,0.00,,,0.00,WeatherCatV2.10B1306,2015-04-19 09:59:00,
2015-04-19 06:04:00,36.7,29.9,30.19,NE,51,0.0,1.0,76,0.00,,,0.00,WeatherCatV2.10B1306,2015-04-19 10:04:00,
2015-04-19 06:09:00,36.5,29.7,30.19,ENE,59,0.0,1.0,76,0.00,,,0.00,WeatherCatV2.10B1306,2015-04-19 10:09:00,
2015-04-19 06:14:00,36.4,29.9,30.19,East,82,0.0,1.0,77,0.00,,,0.00,WeatherCatV2.10B1306,2015-04-19 10:14:00,
2015-04-19 06:19:00,36.3,29.8,30.20,East,86,1.0,1.0,77,0.00,,,0.00,WeatherCatV2.10B1306,2015-04-19 10:19:00,
2015-04-19 06:24:00,36.4,29.9,30.19,East,84,0.0,0.0,77,0.00,,,0.00,WeatherCatV2.10B1306,2015-04-19 10:24:00,
2015-04-19 06:29:00,36.4,29.9,30.19,East,80,2.0,2.0,77,0.00,,,0.00,WeatherCatV2.10B1306,2015-04-19 10:29:00,
2015-04-19 06:34:00,36.4,29.9,30.19,East,86,2.0,3.0,77,0.00,,,0.00,WeatherCatV2.10B1306,2015-04-19 10:34:00,
2015-04-19 06:39:00,36.6,30.1,30.19,ENE,59,0.0,1.0,77,0.00,,,0.00,WeatherCatV2.10B1306,2015-04-19 10:39:00,
2015-04-19 06:44:00,36.5,30.0,30.19,East,80,1.0,1.0,77,0.00,,,0.00,WeatherCatV2.10B1306,2015-04-19 10:44:00,
2015-04-19 06:49:00,36.6,30.1,30.19,ENE,78,0.0,1.0,77,0.00,,,0.00,WeatherCatV2.10B1306,2015-04-19 10:49:00,
2015-04-19 06:54:00,36.8,30.3,30.19,NE,52,1.0,1.0,77,0.00,,,0.00,WeatherCatV2.10B1306,2015-04-19 10:54:00,
2015-04-19 06:59:00,36.9,30.4,30.20,East,87,0.0,3.0,77,0.00,,,0.00,WeatherCatV2.10B1306,2015-04-19 10:59:00,
2015-04-19 07:04:00,37.2,30.3,30.20,East,81,0.0,1.0,76,0.00,,,0.00,WeatherCatV2.10B1306,2015-04-19 11:04:00,
2015-04-19 07:09:00,37.3,30.4,30.20,East,94,0.0,1.0,76,0.00,,,0.00,WeatherCatV2.10B1306,2015-04-19 11:09:00,
2015-04-19 07:14:00,37.5,30.6,30.20,ENE,73,1.0,2.0,76,0.00,,,0.00,WeatherCatV2.10B1306,2015-04-19 11:14:00,
2015-04-19 07:19:00,37.7,30.5,30.20,East,85,4.0,6.0,75,0.00,,,0.00,WeatherCatV2.10B1306,2015-04-19 11:19:00,
2015-04-19 07:24:00,37.9,30.7,30.20,ENE,65,2.0,3.0,75,0.00,,,0.00,WeatherCatV2.10B1306,2015-04-19 11:24:00,
2015-04-19 07:29:00,38.1,30.6,30.21,East,91,1.0,3.0,74,0.00,,,0.00,WeatherCatV2.10B1306,2015-04-19 11:29:00,
2015-04-19 07:34:00,38.3,31.1,30.21,North,2,0.0,0.0,75,0.00,,,0.00,WeatherCatV2.10B1306,2015-04-19 11:34:00,
2015-04-19 07:39:00,38.5,31.0,30.21,East,91,2.0,3.0,74,0.00,,,0.00,WeatherCatV2.10B1306,2015-04-19 11:39:00,
2015-04-19 07:44:00,38.7,30.8,30.21,East,81,0.0,2.0,73,0.00,,,0.00,WeatherCatV2.10B1306,2015-04-19 11:44:00,
2015-04-19 07:55:00,39.6,31.3,30.21,ENE,71,2.0,2.0,72,0.00,,,0.00,WeatherCatV2.10B1306,2015-04-19 11:55:00,
2015-04-19 08:00:00,40.1,31.5,30.21,ESE,109,1.0,3.0,71,0.00,,,0.00,WeatherCatV2.10B1306,2015-04-19 12:00:00,
2015-04-19 08:05:00,40.7,31.3,30.21,East,90,2.0,3.0,69,0.00,,,0.00,WeatherCatV2.10B1306,2015-04-19 12:05:00,
2015-04-19 08:15:00,41.1,31.7,30.21,East,84,2.0,3.0,69,0.00,,,0.00,WeatherCatV2.10B1306,2015-04-19 12:15:00,
2015-04-19 08:20:00,41.4,31.6,30.21,East,96,1.0,3.0,68,0.00,,,0.00,WeatherCatV2.10B1306,2015-04-19 12:20:00,
2015-04-19 08:25:00,41.8,32.0,30.21,East,91,0.0,1.0,68,0.00,,,0.00,WeatherCatV2.10B1306,2015-04-19 12:25:00,
2015-04-19 08:30:00,42.0,31.5,30.21,NE,48,1.0,3.0,66,0.00,,,0.00,WeatherCatV2.10B1306,2015-04-19 12:30:00,
2015-04-19 08:35:00,42.1,31.9,30.21,ENE,71,3.0,6.0,67,0.00,,,0.00,WeatherCatV2.10B1306,2015-04-19 12:35:00,
2015-04-19 08:40:00,42.3,31.8,30.20,NE,55,1.0,5.0,66,0.00,,,0.00,WeatherCatV2.10B1306,2015-04-19 12:40:00,
2015-04-19 08:45:00,43.1,32.5,30.21,NE,56,0.0,4.0,66,0.00,,,0.00,WeatherCatV2.10B1306,2015-04-19 12:45:00,
2015-04-19 08:50:00,43.3,32.0,30.20,East,92,0.0,5.0,64,0.00,,,0.00,WeatherCatV2.10B1306,2015-04-19 12:50:00,
2015-04-19 08:55:00,43.8,32.4,30.20,SSE,152,0.0,4.0,64,0.00,,,0.00,WeatherCatV2.10B1306,2015-04-19 12:55:00,
2015-04-19 09:00:00,44.3,32.5,30.20,East,101,0.0,1.0,63,0.00,,,0.00,WeatherCatV2.10B1306,2015-04-19 13:00:00,
2015-04-19 09:05:00,44.5,31.9,30.20,SE,134,2.0,5.0,61,0.00,,,0.00,WeatherCatV2.10B1306,2015-04-19 13:05:00,
2015-04-19 09:10:00,44.8,33.0,30.19,East,79,0.0,5.0,63,0.00,,,0.00,WeatherCatV2.10B1306,2015-04-19 13:10:00,
2015-04-19 09:15:00,45.2,32.6,30.20,South,179,1.0,3.0,61,0.00,,,0.00,WeatherCatV2.10B1306,2015-04-19 13:15:00,
2015-04-19 09:20:00,45.7,33.0,30.20,North,356,0.0,6.0,61,0.00,,,0.00,WeatherCatV2.10B1306,2015-04-19 13:20:00,
2015-04-19 09:25:00,46.1,32.6,30.20,East,101,5.0,5.0,59,0.00,,,0.00,WeatherCatV2.10B1306,2015-04-19 13:25:00,
2015-04-19 09:30:00,46.3,32.8,30.19,East,81,3.0,4.0,59,0.00,,,0.00,WeatherCatV2.10B1306,2015-04-19 13:30:00,
2015-04-19 09:35:00,46.6,32.6,30.19,East,82,1.0,3.0,58,0.00,,,0.00,WeatherCatV2.10B1306,2015-04-19 13:35:00,
2015-04-19 09:40:00,46.8,32.8,30.19,ENE,70,2.0,5.0,58,0.00,,,0.00,WeatherCatV2.10B1306,2015-04-19 13:40:00,
2015-04-19 09:45:00,46.8,33.2,30.19,ENE,59,1.0,3.0,59,0.00,,,0.00,WeatherCatV2.10B1306,2015-04-19 13:45:00,
2015-04-19 09:50:00,47.2,33.2,30.19,SE,129,2.0,5.0,58,0.00,,,0.00,WeatherCatV2.10B1306,2015-04-19 13:50:00,
2015-04-19 09:55:00,47.4,32.9,30.19,East,84,2.0,2.0,57,0.00,,,0.00,WeatherCatV2.10B1306,2015-04-19 13:55:00,
2015-04-19 10:00:00,48.1,34.0,30.19,East,86,2.0,3.0,58,0.00,,,0.00,WeatherCatV2.10B1306,2015-04-19 14:00:00,
2015-04-19 10:05:00,48.3,33.3,30.19,WSW,256,0.0,3.0,56,0.00,,,0.00,WeatherCatV2.10B1306,2015-04-19 14:05:00,
2015-04-19 10:10:00,48.9,33.0,30.19,NNW,347,1.0,6.0,54,0.00,,,0.00,WeatherCatV2.10B1306,2015-04-19 14:10:00,
2015-04-19 10:15:00,48.9,33.5,30.19,ESE,106,3.0,5.0,55,0.00,,,0.00,WeatherCatV2.10B1306,2015-04-19 14:15:00,
2015-04-19 10:20:00,49.2,33.7,30.19,ENE,59,0.0,2.0,55,0.00,,,0.00,WeatherCatV2.10B1306,2015-04-19 14:20:00,
2015-04-19 10:25:00,50.1,33.6,30.19,ESE,120,2.0,2.0,53,0.00,,,0.00,WeatherCatV2.10B1306,2015-04-19 14:25:00,
2015-04-19 10:30:00,50.5,34.5,30.19,SSE,162,0.0,1.0,54,0.00,,,0.00,WeatherCatV2.10B1306,2015-04-19 14:30:00,
2015-04-19 10:35:00,51.0,34.0,30.18,ESE,109,0.0,4.0,52,0.00,,,0.00,WeatherCatV2.10B1306,2015-04-19 14:35:00,
2015-04-19 10:45:00,50.8,34.8,30.18,ENE,58,3.0,3.0,54,0.00,,,0.00,WeatherCatV2.10B1306,2015-04-19 14:45:00,
2015-04-19 10:50:00,50.8,34.3,30.18,ESE,118,2.0,4.0,53,0.00,,,0.00,WeatherCatV2.10B1306,2015-04-19 14:50:00,
2015-04-19 10:55:00,50.5,34.0,30.18,SSW,200,0.0,3.0,53,0.00,,,0.00,WeatherCatV2.10B1306,2015-04-19 14:55:00,
2015-04-19 11:00:00,51.2,34.2,30.18,SSE,164,2.0,5.0,52,0.00,,,0.00,WeatherCatV2.10B1306,2015-04-19 15:00:00,
2015-04-19 11:05:00,51.9,34.8,30.18,ESE,110,0.0,3.0,52,0.00,,,0.00,WeatherCatV2.10B1306,2015-04-19 15:05:00,
2015-04-19 11:10:00,52.5,34.4,30.17,SSW,197,1.0,4.0,50,0.00,,,0.00,WeatherCatV2.10B1306,2015-04-19 15:10:00,
2015-04-19 11:15:00,52.9,35.3,30.17,ESE,105,1.0,3.0,51,0.00,,,0.00,WeatherCatV2.10B1306,2015-04-19 15:15:00,
2015-04-19 11:25:00,52.8,33.1,30.16,ENE,69,0.0,6.0,47,0.00,,,0.00,WeatherCatV2.10B1306,2015-04-19 15:25:00,
2015-04-19 11:30:00,53.0,33.3,30.16,NE,47,4.0,7.0,47,0.00,,,0.00,WeatherCatV2.10B1306,2015-04-19 15:30:00,
2015-04-19 11:35:00,52.9,33.8,30.16,SE,146,0.0,2.0,48,0.00,,,0.00,WeatherCatV2.10B1306,2015-04-19 15:35:00,
2015-04-19 11:40:00,53.4,34.7,30.16,East,79,3.0,8.0,49,0.00,,,0.00,WeatherCatV2.10B1306,2015-04-19 15:40:00,
2015-04-19 11:45:00,53.6,33.9,30.15,East,85,2.0,7.0,47,0.00,,,0.00,WeatherCatV2.10B1306,2015-04-19 15:45:00,
2015-04-19 11:50:00,53.8,34.6,30.15,SSE,159,2.0,6.0,48,0.00,,,0.00,WeatherCatV2.10B1306,2015-04-19 15:50:00,
2015-04-19 11:55:00,54.2,34.9,30.15,East,90,1.0,3.0,48,0.00,,,0.00,WeatherCatV2.10B1306,2015-04-19 15:55:00,
2015-04-19 12:00:00,54.7,34.3,30.15,East,87,4.0,7.0,46,0.00,,,0.00,WeatherCatV2.10B1306,2015-04-19 16:00:00,
2015-04-19 12:05:00,54.8,32.7,30.15,East,89,2.0,3.0,43,0.00,,,0.00,WeatherCatV2.10B1306,2015-04-19 16:05:00,
2015-04-19 12:10:00,55.3,35.4,30.14,SE,143,1.0,4.0,47,0.00,,,0.00,WeatherCatV2.10B1306,2015-04-19 16:10:00,
2015-04-19 12:15:00,55.7,34.1,30.14,East,91,2.0,5.0,44,0.00,,,0.00,WeatherCatV2.10B1306,2015-04-19 16:15:00,
2015-04-19 12:20:00,56.1,33.3,30.14,East,89,0.0,7.0,42,0.00,,,0.00,WeatherCatV2.10B1306,2015-04-19 16:20:00,
2015-04-19 12:25:00,55.7,33.5,30.14,East,79,2.0,11.0,43,0.00,,,0.00,WeatherCatV2.10B1306,2015-04-19 16:25:00,
2015-04-19 12:30:00,55.6,32.9,30.14,East,82,1.0,7.0,42,0.00,,,0.00,WeatherCatV2.10B1306,2015-04-19 16:30:00,
2015-04-19 12:35:00,56.1,34.5,30.13,West,273,3.0,6.0,44,0.00,,,0.00,WeatherCatV2.10B1306,2015-04-19 16:35:00,
2015-04-19 12:40:00,56.4,34.2,30.13,SE,124,5.0,5.0,43,0.00,,,0.00,WeatherCatV2.10B1306,2015-04-19 16:40:00,
2015-04-19 12:45:00,56.6,33.2,30.13,ESE,118,1.0,9.0,41,0.00,,,0.00,WeatherCatV2.10B1306,2015-04-19 16:45:00,
2015-04-19 12:50:00,57.1,37.6,30.12,SSW,200,2.0,4.0,48,0.00,,,0.00,WeatherCatV2.10B1306,2015-04-19 16:50:00,
2015-04-19 12:55:00,57.5,35.8,30.12,NE,39,1.0,5.0,44,0.00,,,0.00,WeatherCatV2.10B1306,2015-04-19 16:55:00,
2015-04-19 13:00:00,56.8,37.8,30.12,NNE,32,5.0,6.0,49,0.00,,,0.00,WeatherCatV2.10B1306,2015-04-19 17:00:00,
2015-04-19 13:05:00,55.8,36.9,30.11,NE,45,2.0,5.0,49,0.00,,,0.00,WeatherCatV2.10B1306,2015-04-19 17:05:00,
2015-04-19 13:10:00,55.7,38.8,30.11,East,83,5.0,5.0,53,0.00,,,0.00,WeatherCatV2.10B1306,2015-04-19 17:10:00,
2015-04-19 13:15:00,55.7,37.8,30.10,NNE,23,3.0,9.0,51,0.00,,,0.00,WeatherCatV2.10B1306,2015-04-19 17:15:00,
2015-04-19 13:20:00,55.0,37.2,30.10,East,91,4.0,6.0,51,0.00,,,0.00,WeatherCatV2.10B1306,2015-04-19 17:20:00,
2015-04-19 13:25:00,54.9,37.6,30.09,NE,55,4.0,6.0,52,0.00,,,0.00,WeatherCatV2.10B1306,2015-04-19 17:25:00,
2015-04-19 13:30:00,54.5,37.7,30.09,East,83,3.0,8.0,53,0.00,,,0.00,WeatherCatV2.10B1306,2015-04-19 17:30:00,
2015-04-19 13:35:00,54.5,37.2,30.08,NNE,31,2.0,5.0,52,0.00,,,0.00,WeatherCatV2.10B1306,2015-04-19 17:35:00,
2015-04-19 13:40:00,54.3,37.5,30.08,North,5,4.0,7.0,53,0.00,,,0.00,WeatherCatV2.10B1306,2015-04-19 17:40:00,
2015-04-19 13:45:00,54.7,36.9,30.07,North,4,3.0,8.0,51,0.00,,,0.00,WeatherCatV2.10B1306,2015-04-19 17:45:00,
2015-04-19 13:50:00,55.1,38.3,30.07,WNW,295,1.0,3.0,53,0.00,,,0.00,WeatherCatV2.10B1306,2015-04-19 17:50:00,
2015-04-19 13:55:00,55.0,36.2,30.07,ENE,68,3.0,8.0,49,0.00,,,0.00,WeatherCatV2.10B1306,2015-04-19 17:55:00,
2015-04-19 14:00:00,54.3,36.6,30.07,NE,41,1.0,5.0,51,0.00,,,0.00,WeatherCatV2.10B1306,2015-04-19 18:00:00,
2015-04-19 14:05:00,55.0,36.7,30.07,East,91,7.0,8.0,50,0.00,,,0.00,WeatherCatV2.10B1306,2015-04-19 18:05:00,
2015-04-19 14:10:00,54.9,37.6,30.07,NE,48,2.0,4.0,52,0.00,,,0.00,WeatherCatV2.10B1306,2015-04-19 18:10:00,
2015-04-19 14:15:00,55.3,37.5,30.07,NNW,347,0.0,6.0,51,0.00,,,0.00,WeatherCatV2.10B1306,2015-04-19 18:15:00,
2015-04-19 14:20:00,55.3,36.5,30.07,East,80,3.0,5.0,49,0.00,,,0.00,WeatherCatV2.10B1306,2015-04-19 18:20:00,
2015-04-19 14:25:00,55.6,37.8,30.06,East,89,0.0,9.0,51,0.00,,,0.00,WeatherCatV2.10B1306,2015-04-19 18:25:00,
2015-04-19 14:30:00,56.3,37.4,30.06,ENE,63,2.0,3.0,49,0.00,,,0.00,WeatherCatV2.10B1306,2015-04-19 18:30:00,
2015-04-19 14:35:00,56.1,36.7,30.06,East,90,2.0,7.0,48,0.00,,,0.00,WeatherCatV2.10B1306,2015-04-19 18:35:00,
2015-04-19 14:40:00,55.9,38.5,30.05,ENE,76,4.0,6.0,52,0.00,,,0.00,WeatherCatV2.10B1306,2015-04-19 18:40:00,
2015-04-19 14:45:00,56.3,37.9,30.05,East,89,1.0,5.0,50,0.00,,,0.00,WeatherCatV2.10B1306,2015-04-19 18:45:00,
2015-04-19 14:50:00,56.2,35.7,30.05,North,0,4.0,9.0,46,0.00,,,0.00,WeatherCatV2.10B1306,2015-04-19 18:50:00,
2015-04-19 14:55:00,56.2,36.8,30.04,ENE,61,4.0,5.0,48,0.00,,,0.00,WeatherCatV2.10B1306,2015-04-19 18:55:00,
2015-04-19 15:00:00,56.7,36.7,30.04,North,5,0.0,5.0,47,0.00,,,0.00,WeatherCatV2.10B1306,2015-04-19 19:00:00,
2015-04-19 15:05:00,57.3,36.1,30.04,NE,54,2.0,6.0,45,0.00,,,0.00,WeatherCatV2.10B1306,2015-04-19 19:05:00,
2015-04-19 15:10:00,57.0,37.0,30.03,East,91,4.0,5.0,47,0.00,,,0.00,WeatherCatV2.10B1306,2015-04-19 19:10:00,
2015-04-19 15:15:00,56.7,36.7,30.03,ENE,71,4.0,7.0,47,0.00,,,0.00,WeatherCatV2.10B1306,2015-04-19 19:15:00,
2015-04-19 15:20:00,57.1,38.1,30.02,North,6,0.0,6.0,49,0.00,,,0.00,WeatherCatV2.10B1306,2015-04-19 19:20:00,
2015-04-19 15:25:00,56.9,37.4,30.01,ENE,62,4.0,5.0,48,0.00,,,0.00,WeatherCatV2.10B1306,2015-04-19 19:25:00,
2015-04-19 15:30:00,57.0,38.0,30.01,East,92,6.0,7.0,49,0.00,,,0.00,WeatherCatV2.10B1306,2015-04-19 19:30:00,
2015-04-19 15:35:00,57.1,37.6,30.00,East,88,5.0,7.0,48,0.00,,,0.00,WeatherCatV2.10B1306,2015-04-19 19:35:00,
2015-04-19 15:40:00,57.5,37.4,30.00,East,85,7.0,7.0,47,0.00,,,0.00,WeatherCatV2.10B1306,2015-04-19 19:40:00,
2015-04-19 15:45:00,57.0,37.0,29.99,ENE,75,4.0,4.0,47,0.00,,,0.00,WeatherCatV2.10B1306,2015-04-19 19:45:00,
2015-04-19 15:50:00,56.9,37.4,29.99,East,96,1.0,5.0,48,0.00,,,0.00,WeatherCatV2.10B1306,2015-04-19 19:50:00,
2015-04-19 15:55:00,56.7,36.2,29.98,ENE,72,3.0,7.0,46,0.00,,,0.00,WeatherCatV2.10B1306,2015-04-19 19:55:00,
2015-04-19 16:00:00,56.6,36.6,29.98,East,90,4.0,6.0,47,0.00,,,0.00,WeatherCatV2.10B1306,2015-04-19 20:00:00,
2015-04-19 16:05:00,56.8,36.8,29.98,ENE,77,2.0,7.0,47,0.00,,,0.00,WeatherCatV2.10B1306,2015-04-19 20:05:00,
2015-04-19 16:10:00,56.8,36.2,29.98,East,84,2.0,6.0,46,0.00,,,0.00,WeatherCatV2.10B1306,2015-04-19 20:10:00,
2015-04-19 16:15:00,56.5,37.0,29.98,NE,49,2.0,6.0,48,0.00,,,0.00,WeatherCatV2.10B1306,2015-04-19 20:15:00,
2015-04-19 16:20:00,56.7,36.7,29.97,NNE,27,1.0,5.0,47,0.00,,,0.00,WeatherCatV2.10B1306,2015-04-19 20:20:00,
2015-04-19 16:25:00,56.8,36.8,29.97,East,92,1.0,5.0,47,0.00,,,0.00,WeatherCatV2.10B1306,2015-04-19 20:25:00,
2015-04-19 16:30:00,57.2,36.6,29.96,NNE,32,1.0,6.0,46,0.00,,,0.00,WeatherCatV2.10B1306,2015-04-19 20:30:00,
2015-04-19 16:35:00,57.5,37.4,29.96,NNE,32,3.0,6.0,47,0.00,,,0.00,WeatherCatV2.10B1306,2015-04-19 20:35:00,
2015-04-19 16:40:00,57.4,36.8,29.96,NNW,333,2.0,6.0,46,0.00,,,0.00,WeatherCatV2.10B1306,2015-04-19 20:40:00,
2015-04-19 16:45:00,57.3,37.2,29.95,ENE,72,2.0,5.0,47,0.00,,,0.00,WeatherCatV2.10B1306,2015-04-19 20:45:00,
2015-04-19 16:50:00,57.0,35.9,29.96,NNE,12,2.0,4.0,45,0.00,,,0.00,WeatherCatV2.10B1306,2015-04-19 20:50:00,
2015-04-19 16:55:00,56.6,36.1,29.96,ENE,65,3.0,3.0,46,0.00,,,0.00,WeatherCatV2.10B1306,2015-04-19 20:55:00,
2015-04-19 17:00:00,56.4,35.9,29.96,East,94,4.0,6.0,46,0.00,,,0.00,WeatherCatV2.10B1306,2015-04-19 21:00:00,
2015-04-19 17:05:00,56.3,36.9,29.96,East,79,2.0,5.0,48,0.00,,,0.00,WeatherCatV2.10B1306,2015-04-19 21:05:00,
2015-04-19 17:10:00,56.5,36.5,29.95,ENE,70,3.0,5.0,47,0.00,,,0.00,WeatherCatV2.10B1306,2015-04-19 21:10:00,
2015-04-19 17:15:00,56.3,35.8,29.95,East,86,1.0,4.0,46,0.00,,,0.00,WeatherCatV2.10B1306,2015-04-19 21:15:00,
2015-04-19 17:20:00,56.0,36.1,29.95,East,94,2.0,4.0,47,0.00,,,0.00,WeatherCatV2.10B1306,2015-04-19 21:20:00,
2015-04-19 17:25:00,55.7,35.8,29.95,NE,56,1.0,5.0,47,0.00,,,0.00,WeatherCatV2.10B1306,2015-04-19 21:25:00,
2015-04-19 17:30:00,55.6,36.7,29.95,ENE,73,5.0,6.0,49,0.00,,,0.00,WeatherCatV2.10B1306,2015-04-19 21:30:00,
2015-04-19 17:35:00,55.4,36.0,29.94,North,9,2.0,7.0,48,0.00,,,0.00,WeatherCatV2.10B1306,2015-04-19 21:35:00,
2015-04-19 17:40:00,55.2,35.3,29.94,East,86,2.0,4.0,47,0.00,,,0.00,WeatherCatV2.10B1306,2015-04-19 21:40:00,
2015-04-19 17:45:00,55.1,36.3,29.94,NNE,32,1.0,4.0,49,0.00,,,0.00,WeatherCatV2.10B1306,2015-04-19 21:45:00,
2015-04-19 17:50:00,55.0,35.1,29.94,East,79,2.0,6.0,47,0.00,,,0.00,WeatherCatV2.10B1306,2015-04-19 21:50:00,
2015-04-19 17:55:00,54.6,35.3,29.94,East,79,1.0,3.0,48,0.00,,,0.00,WeatherCatV2.10B1306,2015-04-19 21:55:00,
2015-04-19 18:00:00,54.8,35.5,29.94,East,84,1.0,3.0,48,0.00,,,0.00,WeatherCatV2.10B1306,2015-04-19 22:00:00,
2015-04-19 18:05:00,54.7,36.4,29.94,East,87,1.0,3.0,50,0.00,,,0.00,WeatherCatV2.10B1306,2015-04-19 22:05:00,
2015-04-19 18:10:00,54.4,35.1,29.94,NE,37,1.0,8.0,48,0.00,,,0.00,WeatherCatV2.10B1306,2015-04-19 22:10:00,
2015-04-19 18:15:00,54.2,34.9,29.93,East,80,2.0,4.0,48,0.00,,,0.00,WeatherCatV2.10B1306,2015-04-19 22:15:00,
2015-04-19 18:20:00,54.3,35.0,29.93,ENE,77,2.0,4.0,48,0.00,,,0.00,WeatherCatV2.10B1306,2015-04-19 22:20:00,
2015-04-19 18:25:00,54.1,35.4,29.93,ENE,70,2.0,4.0,49,0.00,,,0.00,WeatherCatV2.10B1306,2015-04-19 22:25:00,
2015-04-19 18:30:00,53.8,34.6,29.93,East,86,2.0,4.0,48,0.00,,,0.00,WeatherCatV2.10B1306,2015-04-19 22:30:00,
2015-04-19 18:35:00,53.6,34.4,29.92,ENE,66,0.0,6.0,48,0.00,,,0.00,WeatherCatV2.10B1306,2015-04-19 22:35:00,
2015-04-19 18:40:00,53.4,34.7,29.92,East,90,5.0,6.0,49,0.00,,,0.00,WeatherCatV2.10B1306,2015-04-19 22:40:00,
2015-04-19 18:45:00,53.4,34.7,29.92,NNW,342,1.0,3.0,49,0.00,,,0.00,WeatherCatV2.10B1306,2015-04-19 22:45:00,
2015-04-19 18:50:00,53.3,34.6,29.92,ENE,76,2.0,3.0,49,0.00,,,0.00,WeatherCatV2.10B1306,2015-04-19 22:50:00,
2015-04-19 18:55:00,53.2,35.0,29.91,ENE,71,2.0,2.0,50,0.00,,,0.00,WeatherCatV2.10B1306,2015-04-19 22:55:00,
2015-04-19 19:00:00,53.1,35.5,29.91,NE,42,2.0,2.0,51,0.00,,,0.00,WeatherCatV2.10B1306,2015-04-19 23:00:00,
2015-04-19 19:05:00,53.0,35.4,29.91,NE,43,0.0,2.0,51,0.00,,,0.00,WeatherCatV2.10B1306,2015-04-19 23:05:00,
2015-04-19 19:10:00,52.9,34.8,29.91,East,84,0.0,3.0,50,0.00,,,0.00,WeatherCatV2.10B1306,2015-04-19 23:10:00,
2015-04-19 19:15:00,52.8,34.7,29.91,ENE,72,1.0,2.0,50,0.00,,,0.00,WeatherCatV2.10B1306,2015-04-19 23:15:00,
2015-04-19 19:20:00,52.7,35.1,29.91,East,100,0.0,1.0,51,0.00,,,0.00,WeatherCatV2.10B1306,2015-04-19 23:20:00,
2015-04-19 19:25:00,52.6,35.0,29.91,ENE,77,0.0,2.0,51,0.00,,,0.00,WeatherCatV2.10B1306,2015-04-19 23:25:00,
2015-04-19 19:30:00,52.4,34.3,29.91,ENE,63,0.0,3.0,50,0.00,,,0.00,WeatherCatV2.10B1306,2015-04-19 23:30:00,
2015-04-19 19:35:00,52.3,34.2,29.91,East,89,1.0,1.0,50,0.00,,,0.00,WeatherCatV2.10B1306,2015-04-19 23:35:00,
2015-04-19 19:40:00,52.2,34.1,29.90,East,87,0.0,1.0,50,0.00,,,0.00,WeatherCatV2.10B1306,2015-04-19 23:40:00,
2015-04-19 19:45:00,52.0,34.4,29.90,ENE,68,1.0,2.0,51,0.00,,,0.00,WeatherCatV2.10B1306,2015-04-19 23:45:00,
2015-04-19 19:50:00,51.9,34.8,29.89,East,90,0.0,2.0,52,0.00,,,0.00,WeatherCatV2.10B1306,2015-04-19 23:50:00,
2015-04-19 19:55:00,51.8,34.7,29.89,East,84,1.0,3.0,52,0.00,,,0.00,WeatherCatV2.10B1306,2015-04-19 23:55:00,
2015-04-19 20:00:00,51.7,34.7,29.89,East,82,1.0,3.0,52,0.00,,,0.00,WeatherCatV2.10B1306,2015-04-20 00:00:00,
2015-04-19 20:05:00,51.6,34.6,29.89,ENE,77,2.0,2.0,52,0.00,,,0.00,WeatherCatV2.10B1306,2015-04-20 00:05:00,
2015-04-19 20:11:00,51.4,34.8,29.89,East,86,2.0,2.0,53,0.00,,,0.00,WeatherCatV2.10B1306,2015-04-20 00:11:00,
2015-04-19 20:16:00,51.3,34.8,29.88,ENE,69,1.0,1.0,53,0.00,,,0.00,WeatherCatV2.10B1306,2015-04-20 00:16:00,
2015-04-19 20:21:00,51.3,34.8,29.88,East,91,1.0,2.0,53,0.00,,,0.00,WeatherCatV2.10B1306,2015-04-20 00:21:00,
2015-04-19 20:26:00,51.2,34.7,29.88,East,82,0.0,2.0,53,0.00,,,0.00,WeatherCatV2.10B1306,2015-04-20 00:26:00,
2015-04-19 20:31:00,51.2,34.7,29.88,ENE,78,1.0,2.0,53,0.00,,,0.00,WeatherCatV2.10B1306,2015-04-20 00:31:00,
2015-04-19 20:36:00,51.2,35.1,29.87,East,80,1.0,1.0,54,0.00,,,0.00,WeatherCatV2.10B1306,2015-04-20 00:36:00,
2015-04-19 20:41:00,51.3,35.2,29.87,ENE,76,1.0,1.0,54,0.00,,,0.00,WeatherCatV2.10B1306,2015-04-20 00:41:00,
2015-04-19 20:46:00,51.4,35.3,29.87,East,90,1.0,2.0,54,0.00,,,0.00,WeatherCatV2.10B1306,2015-04-20 00:46:00,
2015-04-19 20:51:00,51.4,35.3,29.86,East,84,1.0,2.0,54,0.00,,,0.00,WeatherCatV2.10B1306,2015-04-20 00:51:00,
2015-04-19 20:56:00,51.4,35.8,29.86,ESE,110,1.0,1.0,55,0.00,,,0.00,WeatherCatV2.10B1306,2015-04-20 00:56:00,
2015-04-19 21:01:00,51.4,35.3,29.86,ESE,116,1.0,2.0,54,0.00,,,0.00,WeatherCatV2.10B1306,2015-04-20 01:01:00,
2015-04-19 21:06:00,51.6,35.5,29.86,ESE,114,1.0,2.0,54,0.00,,,0.00,WeatherCatV2.10B1306,2015-04-20 01:06:00,
2015-04-19 21:11:00,51.6,36.0,29.86,SE,139,0.0,1.0,55,0.00,,,0.00,WeatherCatV2.10B1306,2015-04-20 01:11:00,
2015-04-19 21:16:00,51.5,35.9,29.86,ESE,110,0.0,1.0,55,0.00,,,0.00,WeatherCatV2.10B1306,2015-04-20 01:16:00,